Total_Precipitation_Accumulation
1.75 1.98 1.72 1.22 1.02 0.89 0.78 0.68 0.59 0.42 0.35 0.48 0.45 0.31 0.23 0.26 0.32 0.36 0.37 0.44 0.49 0.50 0.52 0.58 0.67 0.82 0.99 1.13 1.27 1.44 1.77 1.96 2.22 2.29 2.20 2.12 2.18 2.19 2.22 2.23 2.15 2.04 1.95 1.85
1.83 1.51 0.87 0.65 0.69 0.82 0.89 0.85 0.63 0.48 0.40 0.51 0.46 0.31 0.23 0.24 0.31 0.34 0.38 0.43 0.48 0.53 0.60 0.64 0.76 0.93 1.00 1.04 1.18 1.35 1.61 1.82 1.96 1.98 1.95 1.92 1.91 1.98 2.04 2.13 2.21 2.23 2.14 2.00
1.30 0.87 0.57 0.72 0.86 1.01 0.97 0.83 0.65 0.61 0.59 0.65 0.62 0.54 0.31 0.28 0.30 0.32 0.38 0.42 0.44 0.49 0.54 0.56 0.68 0.92 1.04 1.04 1.12 1.26 1.47 1.66 1.87 2.06 2.16 2.17 2.27 2.24 2.10 2.00 2.04 2.12 2.11 2.01
0.91 0.59 0.66 0.88 0.90 0.96 1.00 0.63 0.61 0.68 0.96 1.14 0.92 1.02 0.48 0.33 0.35 0.32 0.37 0.45 0.43 0.47 0.52 0.52 0.61 0.83 1.01 1.01 1.15 1.31 1.50 1.72 1.84 2.07 2.17 2.04 1.99 2.04 1.88 1.78 1.76 1.92 2.08 2.06
0.98 0.65 0.74 0.89 0.74 0.72 0.73 0.58 0.72 0.85 1.12 1.30 0.98 1.08 0.59 0.35 0.44 0.41 0.40 0.48 0.45 0.48 0.52 0.51 0.56 0.75 0.96 1.06 1.17 1.37 1.51 1.75 1.91 2.01 2.06 1.99 1.87 1.80 1.87 1.97 1.95 1.89 1.93 2.04
0.76 0.61 0.72 0.65 0.54 0.63 0.72 0.93 1.20 1.36 1.84 2.01 0.92 0.87 0.69 0.54 0.58 0.51 0.48 0.53 0.51 0.51 0.55 0.58 0.61 0.75 0.91 1.04 1.18 1.33 1.56 1.72 1.95 2.04 2.01 1.86 1.74 1.69 1.76 1.86 2.03 2.06 2.01 2.03
1.12 0.83 0.78 0.69 0.87 1.03 1.21 1.79 2.77 3.08 3.01 1.82 0.54 0.59 0.70 0.58 0.53 0.55 0.56 0.56 0.55 0.57 0.61 0.61 0.63 0.71 0.81 0.95 1.11 1.26 1.45 1.72 1.92 2.05 1.99 1.79 1.66 1.61 1.63 1.69 1.81 1.91 1.97 2.01
1.30 1.14 0.83 0.83 1.06 1.32 1.28 1.47 2.01 2.13 1.58 0.78 0.43 0.54 0.58 0.52 0.45 0.47 0.49 0.53 0.49 0.57 0.66 0.65 0.62 0.69 0.77 0.89 1.05 1.22 1.37 1.62 1.87 1.99 1.98 1.88 1.67 1.59 1.59 1.64 1.67 1.72 1.68 1.70
1.30 1.01 0.65 0.61 0.64 0.84 1.20 1.21 1.01 1.36 0.99 0.66 0.58 0.49 0.43 0.38 0.36 0.41 0.47 0.54 0.55 0.60 0.70 0.73 0.70 0.74 0.78 0.88 1.02 1.20 1.34 1.52 1.78 1.98 1.99 1.96 1.79 1.66 1.61 1.62 1.63 1.72 1.69 1.62
1.44 1.23 0.73 0.68 0.78 0.94 1.06 1.15 1.36 1.87 1.56 0.91 0.54 0.44 0.51 0.45 0.41 0.41 0.47 0.57 0.58 0.59 0.68 0.74 0.74 0.77 0.82 0.94 1.05 1.18 1.34 1.46 1.64 1.84 1.96 1.96 1.98 1.81 1.73 1.71 1.65 1.63 1.70 1.69
1.37 1.47 1.08 1.01 1.20 1.19 1.13 1.43 1.71 1.74 1.38 1.15 0.77 0.58 0.56 0.47 0.41 0.41 0.43 0.54 0.59 0.63 0.70 0.78 0.81 0.79 0.83 0.98 1.10 1.16 1.26 1.44 1.60 1.69 1.78 1.86 2.00 1.89 1.81 1.79 1.72 1.62 1.61 1.71
1.39 1.67 1.35 1.00 0.83 0.77 0.96 1.21 1.43 1.77 1.37 0.90 0.87 0.69 0.47 0.39 0.36 0.35 0.37 0.47 0.55 0.61 0.68 0.71 0.76 0.79 0.79 0.90 1.09 1.19 1.26 1.31 1.51 1.65 1.70 1.78 1.91 1.96 1.85 1.81 1.76 1.62 1.52 1.56
1.82 2.20 1.98 1.65 1.38 1.15 1.22 1.12 1.15 1.31 1.36 1.04 0.91 0.67 0.44 0.38 0.36 0.34 0.35 0.40 0.52 0.60 0.67 0.69 0.70 0.73 0.78 0.85 1.00 1.13 1.22 1.25 1.36 1.59 1.61 1.70 1.82 1.88 1.85 1.77 1.79 1.73 1.65 1.66
2.15 2.23 1.62 1.50 1.33 1.23 1.20 0.96 0.94 1.35 1.64 1.06 0.70 0.57 0.47 0.46 0.46 0.44 0.39 0.41 0.51 0.61 0.66 0.66 0.69 0.72 0.78 0.85 0.94 1.01 1.09 1.21 1.33 1.55 1.66 1.64 1.70 1.73 1.77 1.79 1.76 1.81 1.85 1.90
2.02 1.95 0.89 0.55 0.50 0.62 0.74 0.68 0.72 0.96 0.99 0.90 0.57 0.51 0.59 0.59 0.58 0.55 0.51 0.49 0.51 0.64 0.67 0.67 0.71 0.74 0.78 0.88 0.96 0.95 1.01 1.10 1.26 1.44 1.57 1.62 1.63 1.75 1.86 1.90 1.94 1.89 1.97 2.03
1.83 1.77 0.90 0.55 0.36 0.44 0.56 0.48 0.51 0.56 0.56 0.60 0.50 0.55 0.58 0.56 0.51 0.51 0.52 0.51 0.53 0.63 0.68 0.70 0.72 0.76 0.80 0.87 0.93 0.92 0.93 1.02 1.16 1.34 1.43 1.50 1.62 1.74 1.91 1.98 2.06 2.06 2.06 2.09
1.59 1.55 1.36 0.91 0.45 0.68 0.85 0.59 0.52 0.53 0.52 0.54 0.62 0.65 0.59 0.56 0.54 0.55 0.54 0.55 0.56 0.56 0.60 0.66 0.74 0.79 0.82 0.85 0.87 0.91 0.91 0.93 1.03 1.20 1.31 1.38 1.54 1.63 1.74 1.82 1.87 1.92 1.88 1.86
1.29 1.42 1.73 1.29 0.95 1.31 0.78 0.47 0.45 0.48 0.53 0.54 0.58 0.60 0.59 0.64 0.63 0.58 0.57 0.59 0.59 0.57 0.56 0.58 0.70 0.77 0.75 0.78 0.84 0.86 0.86 0.88 0.96 1.08 1.19 1.22 1.36 1.51 1.56 1.63 1.67 1.70 1.66 1.69
0.83 1.38 1.98 1.67 1.25 0.77 0.42 0.36 0.49 0.58 0.66 0.58 0.54 0.53 0.52 0.54 0.57 0.60 0.59 0.57 0.60 0.58 0.56 0.58 0.66 0.71 0.71 0.75 0.81 0.80 0.81 0.82 0.89 0.99 1.06 1.08 1.16 1.34 1.38 1.47 1.56 1.55 1.57 1.59
0.86 1.35 2.10 1.79 1.39 0.76 0.43 0.28 0.35 0.52 0.76 0.54 0.48 0.52 0.54 0.56 0.75 0.73 0.66 0.62 0.61 0.57 0.56 0.60 0.65 0.64 0.67 0.72 0.74 0.73 0.74 0.78 0.85 0.91 0.99 1.00 1.03 1.15 1.18 1.23 1.33 1.37 1.39 1.47
1.23 1.77 1.97 1.48 1.19 0.58 0.37 0.29 0.32 0.79 0.94 0.52 0.49 0.55 0.59 0.70 0.82 0.75 0.69 0.66 0.63 0.62 0.61 0.61 0.62 0.65 0.69 0.73 0.74 0.74 0.74 0.76 0.80 0.84 0.88 0.93 0.98 1.06 1.08 1.11 1.17 1.25 1.32 1.38
0.84 1.15 1.17 1.10 1.24 0.70 0.36 0.37 0.65 0.81 0.51 0.45 0.47 0.50 0.56 0.57 0.55 0.56 0.60 0.60 0.59 0.61 0.61 0.61 0.63 0.68 0.70 0.70 0.69 0.68 0.75 0.75 0.76 0.81 0.88 0.92 0.96 0.99 1.01 1.06 1.14 1.16 1.27 1.40
0.61 0.78 0.85 0.84 0.78 0.57 0.45 0.54 0.58 0.48 0.42 0.39 0.42 0.46 0.49 0.52 0.51 0.55 0.56 0.57 0.57 0.58 0.59 0.59 0.63 0.68 0.68 0.68 0.67 0.67 0.73 0.73 0.75 0.79 0.84 0.92 0.98 0.99 1.04 1.07 1.13 1.19 1.29 1.42
0.51 0.47 0.59 0.57 0.46 0.40 0.40 0.40 0.41 0.39 0.40 0.38 0.40 0.45 0.46 0.50 0.51 0.54 0.53 0.55 0.55 0.54 0.54 0.53 0.58 0.63 0.66 0.68 0.69 0.70 0.72 0.74 0.77 0.80 0.81 0.86 0.97 1.04 1.05 1.08 1.13 1.17 1.24 1.40
0.44 0.45 0.55 0.50 0.36 0.31 0.30 0.31 0.35 0.38 0.36 0.35 0.36 0.39 0.42 0.43 0.45 0.48 0.52 0.53 0.54 0.54 0.53 0.51 0.54 0.61 0.66 0.68 0.69 0.72 0.77 0.81 0.83 0.80 0.79 0.83 0.93 1.01 1.04 1.09 1.14 1.19 1.20 1.41
0.35 0.43 0.55 0.50 0.34 0.38 0.34 0.29 0.30 0.34 0.34 0.32 0.34 0.36 0.35 0.37 0.42 0.43 0.46 0.49 0.50 0.51 0.52 0.52 0.52 0.58 0.64 0.67 0.70 0.75 0.83 0.87 0.87 0.85 0.85 0.87 0.94 0.97 0.99 1.04 1.12 1.22 1.24 1.32